{"data":{"norad_id":57964,"intl_designator":"2023-151A","name":"STARLINK-30396","alt_names":[],"object_type":"PAYLOAD","status":"ACTIVE","operator":null,"country":"US","launch_date":"2023-09-30","launch_site_code":"AFETR","launch_vehicle":null,"mission":null,"orbit_class":"UNKNOWN","rcs_meters":null,"size_class":null,"mass_kg":null,"dimensions":null,"purposes":["comms"],"wikipedia_slug":null,"has_3d_model":false,"image_url":null,"decayed_at":null,"tle_current":{"epoch":"2026-05-24T16:10:05.940768Z","epoch_age_seconds":99273,"freshness":"FRESH","line1":"1 57964U 23151A   26144.67367987  .00001956  00000+0  80588-4 0  9996","line2":"2 57964  43.0027 267.1959 0001210 261.4749  98.5965 15.27583069147386","mean_motion":15.27583069,"eccentricity":0.000121,"inclination_deg":43.0027,"raan_deg":267.1959,"arg_perigee_deg":261.4749,"mean_anomaly_deg":98.5965,"bstar":8.0588e-5,"rev_number":14738,"period_min":94.26655932647,"perigee_km":482.2097039593,"apogee_km":483.87010877064,"semimajor_km":6861.176906365,"source":"CELESTRAK","updated_at":"2026-05-25T13:38:18.464528Z"}}}